星链-31959 (STARLINK-31959 )

导读

STARLINK-31959是美国太空探索技术公司SpaceX星链卫星互联网项目的一员,于2024年6月1日发射入轨。星链计划旨在低地轨道构建全球卫星互联网络,为地面偏远、基础设施缺失区域提供高速低延迟宽带服务。该卫星的成功入轨,进一步扩充了星链星座规模,助力SpaceX推进全球无死角互联网覆盖的目标,也巩固了星链在全球低轨卫星通信领域的领先地位。

Basic Information
目录编号:
59925
目录名称:
STARLINK-31959
国际标识:
2024-106D
轨道中心:
EARTH
卫星名称:
星链-31959
卫星全名:
星链-31959 (STARLINK-31959 )
卫星状态:
在轨 (已飞行825 天)
发射日期:
2024-06-01 UTC
国别 :
美国 (US)
星等 :
--
Orbit Information
数据来源 国际轨道数据 AOE轨道数据
星历时间 2026-09-03T18:59:46+0800
1天前
查看轨道信息
2026-09-02T03:00:00+0800
2天前
查看轨道信息
半长轴 6861.302km 6861.234km
偏心率 0.0001408 0.0001704
轨道倾角 43.003° 43.002°
近地点辐角 275.040° 274.453°
升交点赤经 44.738° 54.159°
平近点角 85.029° 270.386°
近地点 482.198km 481.927km
远地点 484.132km 484.267km
周期 94.269分钟 94.268分钟
每日圈数 15.275415 15.275643
Detailed Information
固有亮度:
5
最大亮度:
1.5
卫星平台:
Starlink v2.0 mini
覆盖范围:
全球
运营商:
太空探索技术公司
运营商所在国:
美国
制造商(研发单位):
太空探索技术公司
制造商所在国:
美国
使用方式:
暂无
Satellite Introduction
星链(Starlink)计划是由太空探索技术公司(SpaceX)提出的一个巨型低轨卫星互联网星座项目,计划在2019年至2024年间在太空搭建由约1.2万颗卫星组成的“星链”网络,其中1584颗将部署在地球上空550千米处的近地轨道,并从2020年开始工作。该卫星仍在工作。
2D Orbit Map
3D Orbit Map
Orbit Altitude Analysis Chart
Orbit Inclination Analysis Chart
Orbit Comprehensive Analysis Chart
View Comprehensive Chart
Conjunction Data List
Event ID Objects TCA Miss Dist (km) Collision Risk Probability Collision Risk Index (CRI) Action
CDM_260906-063305-992506-391721
2026-09-06T
06:33:25+0000
0.285 km
中距离
4.635485E-4 高风险 0.88
CDM_260905-101105-639505-992521
2026-09-05T
10:11:15+0000
0.383 km
远距离
2.822592E-4 高风险 0.84
CDM_260903-051803-187705-992522
2026-09-03T
05:18:23+0000
0.378 km
远距离
2.673889E-4 高风险 0.84
CDM_260905-210905-973805-992521
2026-09-05T
21:09:43+0000
0.543 km
远距离
1.322747E-4 高风险 0.77
CDM_260905-180005-992506-197621
2026-09-05T
18:00:47+0000
0.581 km
远距离
1.11886E-4 高风险 0.76
CDM_260905-002605-862705-992521
2026-09-05T
00:26:33+0000
0.606 km
远距离
8.518442E-5 中风险 0.74
CDM_260905-231105-862705-992521
2026-09-05T
23:11:50+0000
0.683 km
远距离
6.042249E-5 中风险 0.71
CDM_260905-020005-862705-992521
2026-09-05T
02:00:42+0000
0.695 km
远距离
5.723967E-5 中风险 0.7
CDM_260905-132005-992506-793921
2026-09-05T
13:20:07+0000
0.953 km
远距离
2.381298E-5 中风险 0.63
CDM_260905-193505-973805-992521
2026-09-05T
19:35:34+0000
0.979 km
远距离
2.201666E-5 中风险 0.62